Regional Weather Roundup
Issued by NWS

Home | Current Version | Previous Version | Graphics & Text | Print | Product List | Glossary On
Versions: 1 2 3 4 5 6 7 8 9 10 11 12 13 14 15 16 17 18 19 20 21 22 23 24 25 26 27 28 29 30 31 32 33 34 35 36 37 38 39 40 41 42 43 44 45 46 47 48 49 50
000
ASUS45 KSLC 172110
RWRUT

UTAH REGIONAL WEATHER ROUNDUP
NATIONAL WEATHER SERVICE SALT LAKE CITY UT
300 PM MDT FRI APR 17 2015

UTZ001>011-023>025-172200-

NORTHERN UTAH

CITY           SKY/WX    TMP DP  RH WIND       PRES   REMARKS
BRIGHAM CITY   SUNNY     63  28  27 CALM      30.05F
HILL AFB       MOSUNNY   60  33  37 E5        30.05F
LOGAN          SUNNY     60  40  47 VRB3      30.05F
OGDEN          SUNNY     61  31  32 MISG      30.04F
PROVO AIRPORT  PTSUNNY   54  34  47 S8        30.05F
SALT LAKE CITY PTSUNNY   59  35  40 N5        30.05F
VERNAL         LGT RAIN  48  30  49 N26G35    30.02S
WENDOVER       SUNNY     66  23  19 SE14G21   30.07F
HEBER CITY     PTSUNNY   54  32  43 N28G36    30.04S
WEST JORDAN    PTSUNNY   57  37  47 N9G20     30.06F

$$

UTZ012>022-026-027-172200-

SOUTHERN/CENTRAL UTAH

CITY           SKY/WX    TMP DP  RH WIND       PRES   REMARKS
BLANDING       CLOUDY    37  35  92 S6        30.12F WCI  32
BRYCE CANYON   CLOUDY    41  29  62 NW17G26   30.08R
CEDAR CITY     PTSUNNY   52  28  39 N12G21    30.07F
DELTA          PTSUNNY   57  29  33 CALM      30.05F
HANKSVILLE     CLOUDY    54  34  47 SE5       30.01S
MILFORD        PTSUNNY   57  28  33 N16G23    30.07F
MOAB/CYNLANDS  LGT RAIN  41  40  96 SE14      30.00S
PRICE          CLOUDY    56  29  35 NW13G23   29.97F
ST GEORGE      MOCLDY    66  30  26 E8        30.03F
KANAB          PTSUNNY   54  34  47 S6        30.08F

$$

REGIONAL REPORTS     COLORADO/ARIZONA

CITY           SKY/WX    TMP DP  RH WIND       PRES   REMARKS
CRAIG, CO      PTSUNNY   54  33  45 NE8       29.91F
GRAND JUNCTION LGT RAIN  33  33 100 NE6       30.01F FOG     WCI  28
RIFLE          CLOUDY    37  34  89 W13       29.98F WCI  29
MONTROSE       CLOUDY    43  32  65 CALM      30.01F
CORTEZ         CLOUDY    43  27  53 NW10      30.05F
PAGE, AZ       CLOUDY    57  28  33 E5        30.02F
GRAND CANYON   CLOUDY    44  28  53 VRB7G16   30.10F
KINGMAN        SUNNY     71  21  15 N20G26    30.05F
FLAGSTAFF      CLOUDY    46  24  42 NW13G23   30.09S

$$

REGIONAL REPORTS    NEVADA/IDAHO/WYOMING

CITY           SKY/WX    TMP DP  RH WIND       PRES   REMARKS
LAS VEGAS, NV  MOSUNNY   77  18  11 S9        29.96F
ELY            SUNNY     61  15  16 N16G29    30.11F
ELKO           SUNNY     65  20  17 NE8       30.12F
POCATELLO, ID  SUNNY     63  23  21 VRB6      30.10F
BURLEY         SUNNY     64  22  20 MISG      30.09F
EVANSTON, WY   CLOUDY    43  33  68 E10       30.13F
ROCK SPRINGS   LGT RAIN  37  34  89 NE25G31   30.11S WCI  25
KEMMERER       PTSUNNY   52  32  46 SE8       30.11F

$$


USA.gov is the U.S. government's official web portal to all federal, state and local government web resources and services.